Flag for Germany Weather past 2 weeks in Sinsheim, Baden-Württemberg, Germany

Now
50 °F

Clear.


Feels Like: 46 °F
Forecast: 34 / 44 °F
Wind: 9 mph from Southwest

Location: Baden Wurttemberg - Neuostheim

Current Time: Mar 3, 2015 at 9:31:25 PM

Latest Report: Mar 3, 2015 at 8:50 PM


Visibility: 10 mi

Pressure: 30.07 "Hg

Humidity: 47%

Dew point: 30 °F

Location of SinsheimLocation

Historic Weather in Sinsheim — Graph

°F

Sinsheim temperature yesterday

Maximum temperature yesterday: 52 °F (at 3:50 PM)
Minimum temperature yesterday: 39 °F (at 5:20 PM)
Average temperature yesterday: 46 °F

Past Weeks' High & Low Weather Summary

 TemperatureHumidityPressure
High55 °F (Feb 20, 3:20 PM)100% (Feb 22, 7:50 AM)30.74 "Hg (Feb 22, 7:50 AM)
Low30 °F (Feb 19, 5:20 AM)35% (Mar 2, 3:20 PM)29.47 "Hg (Feb 23, 2:20 PM)
Average41 °F74%30.03 "Hg
* Reported Feb 16 7:20 PM — Mar 3 7:50 PM, Sinsheim, Weather by CustomWeather, © 2015

Note: Actual official high and low records may vary slightly from our data, if they occured in-between our weather recording intervals... More about our weather records

Advertising

Sinsheim weather history for previous 24 hours

 ConditionsComfort  
Time TempWeatherWind HumidityBarometerVisibility
7:50 PM
Tue, Mar 3
50 °FPassing clouds.7 mph47%30.07 "HgN/A
7:20 PM48 °FPassing clouds.8 mph50%30.09 "HgN/A
6:50 PM50 °FClear.8 mph47%30.07 "Hg10 mi
6:20 PM50 °FClear.10 mph43%30.07 "Hg10 mi
5:50 PM52 °FPassing clouds.13 mph41%30.07 "HgN/A
5:20 PM54 °FPartly sunny.12 mph41%30.07 "HgN/A
4:50 PM52 °FPartly sunny.10 mph47%30.07 "HgN/A
4:20 PM52 °FBroken clouds.10 mph47%30.07 "HgN/A
3:50 PM54 °FScattered clouds.12 mph44%30.09 "HgN/A
3:20 PM52 °FScattered clouds.13 mph47%30.09 "HgN/A
2:50 PM52 °FScattered clouds.10 mph47%30.12 "HgN/A
2:20 PM50 °FScattered clouds.10 mph50%30.12 "HgN/A
1:50 PM50 °FScattered clouds.10 mph50%30.12 "HgN/A
1:20 PM50 °FPassing clouds.9 mph50%30.15 "HgN/A
12:50 PM48 °FScattered clouds.9 mph54%30.15 "HgN/A
12:20 PM48 °FScattered clouds.10 mph54%30.18 "HgN/A
11:50 AM46 °FPartly sunny.9 mph57%30.18 "HgN/A
11:20 AM46 °FPassing clouds.9 mph53%30.18 "HgN/A
10:50 AM45 °FPassing clouds.9 mph61%30.21 "HgN/A
10:20 AM43 °FPassing clouds.9 mph66%30.21 "HgN/A
9:50 AM41 °FPassing clouds.9 mph70%30.21 "HgN/A
9:20 AM39 °FPassing clouds.9 mph70%30.21 "HgN/A
8:50 AM39 °FPassing clouds.8 mph70%30.21 "HgN/A
8:20 AM37 °FPassing clouds.6 mph75%30.18 "HgN/A
7:50 AM36 °FScattered clouds.7 mph81%30.18 "HgN/A
7:20 AM36 °FScattered clouds.7 mph81%30.18 "HgN/A
6:50 AM36 °FPassing clouds.6 mph81%30.18 "HgN/A
6:20 AM36 °FPassing clouds.6 mph81%30.18 "HgN/A
5:50 AM36 °FPassing clouds.7 mph81%30.18 "HgN/A
Weather by CustomWeather, © 2015

See weather overviewHow to use our weather pages